Theta_e
314 313 313 313 314 314 312 310 308 306 305 305 305 305 305 305 307 305 306 306 306 307 307 308 309 310 311 309 309 309 308 306 306 305 305 305 303 304 305 303 303 303
314 314 315 314 314 314 312 310 310 309 307 306 306 305 304 307 307 306 305 306 307 305 306 307 307 307 307 307 306 306 305 306 307 308 305 304 303 303 302 301 302 301
314 313 313 313 314 313 313 313 311 309 308 308 306 306 307 309 307 306 306 306 305 305 306 307 306 307 307 305 305 306 306 305 306 304 306 303 302 302 300 301 301 302
315 315 314 314 315 314 313 313 311 309 309 308 308 308 308 310 308 306 306 312 305 305 304 305 306 305 306 305 305 304 305 304 304 304 305 303 304 303 302 302 302 300
316 315 315 315 316 316 314 314 312 311 310 310 308 308 309 309 307 306 306 307 305 305 305 305 305 305 305 305 305 304 304 304 303 303 303 302 302 303 302 302 301 300
316 316 315 315 316 315 314 314 313 312 311 309 310 309 308 309 308 307 307 305 305 305 305 304 304 305 305 304 305 306 306 305 302 302 303 302 302 302 303 301 300 300
314 314 315 316 315 315 314 314 314 313 312 312 310 309 309 309 309 308 307 307 306 307 306 305 305 305 304 304 304 304 303 304 302 303 303 301 302 302 302 300 301 300
313 314 315 316 315 316 314 314 314 314 314 312 311 311 311 311 312 311 309 308 307 307 306 306 306 306 304 304 305 304 303 304 304 302 302 301 301 301 301 302 300 300
314 314 315 316 315 313 313 313 312 312 313 313 312 311 311 311 312 312 312 310 308 308 307 307 307 306 305 305 305 305 305 303 304 302 302 301 301 301 301 300 300 301
311 312 314 314 314 314 314 313 312 312 313 313 313 313 311 310 310 312 312 311 310 309 308 308 308 307 307 306 306 305 305 305 304 303 303 303 303 302 302 301 300 300
310 312 312 313 314 315 315 314 314 314 313 314 313 314 313 311 311 311 311 310 310 310 309 309 309 308 307 307 306 305 306 306 305 304 304 304 303 302 306 302 301 302
312 312 312 312 313 312 312 313 314 313 312 313 314 315 314 314 314 313 313 312 311 311 310 310 309 309 309 308 308 306 306 305 306 305 304 304 304 303 304 303 302 302
311 312 313 314 314 313 312 312 311 310 311 311 312 311 311 312 313 314 314 314 314 313 311 311 310 309 309 308 307 306 306 305 305 305 305 304 305 305 304 304 303 303
312 312 313 313 313 313 313 312 312 310 311 311 311 311 311 311 312 313 314 313 314 314 314 312 310 309 309 308 308 308 307 306 306 306 306 304 304 304 304 304 304 303
311 311 311 312 312 312 311 312 312 311 312 311 311 311 311 311 313 313 312 312 312 311 310 310 311 311 312 311 310 309 308 307 307 307 307 306 305 305 304 304 304 304
309 309 310 311 312 312 311 311 311 311 311 311 311 311 311 312 312 310 310 311 311 309 307 306 308 310 311 307 307 311 309 309 308 308 308 307 306 306 305 305 306 306
306 307 308 309 310 309 310 310 311 310 310 310 310 310 311 310 309 310 309 309 308 307 307 307 309 311 305 301 300 302 310 309 309 309 308 308 307 306 306 306 305 306
303 303 303 305 306 309 309 309 309 309 310 310 310 309 309 309 308 308 307 305 304 304 305 308 308 307 302 300 298 297 302 310 309 308 308 308 307 306 306 305 305 305
298 298 297 297 298 299 298 299 302 305 305 305 305 303 302 303 305 302 302 303 303 305 305 306 307 304 301 299 298 297 296 301 308 307 307 306 307 307 307 306 305 304
296 296 296 296 296 296 296 296 297 297 296 296 298 297 297 297 297 298 298 299 301 301 301 302 304 303 299 298 297 296 295 296 305 305 305 305 305 306 306 305 303 302
295 296 296 295 295 294 294 294 295 295 296 297 295 295 296 297 298 297 297 297 296 297 298 302 304 298 293 294 294 295 294 294 302 302 302 302 303 303 303 303 301 302
295 294 295 294 294 294 294 294 294 294 294 294 293 292 293 293 292 293 294 294 295 295 296 296 298 292 292 295 294 293 293 298 298 299 300 300 301 299 300 299 300 300
295 294 295 294 293 294 294 294 296 295 294 293 293 290 291 292 292 292 291 291 292 293 293 295 295 292 291 294 293 292 295 297 296 296 297 295 293 294 295 297 298 299
294 294 294 295 293 294 294 293 292 293 293 295 296 294 293 293 292 290 289 290 290 291 292 293 292 291 292 292 293 292 297 296 295 294 293 293 293 292 293 295 299 304
294 294 294 295 295 294 293 293 293 294 293 292 291 291 291 291 291 289 288 288 288 288 296 289 287 290 292 291 292 292 295 294 295 294 293 291 291 290 290 290 292 295
295 297 296 296 296 295 294 294 293 293 293 292 290 290 291 288 290 288 288 286 285 285 287 286 287 287 290 291 293 294 295 295 295 294 292 290 289 291 290 289 290 290
Wind_Speed
6 4 7 7 6 6 6 4 3 3 3 3 4 3 4 3 1 2 4 4 4 5 4 4 5 5 6 6 6 6 5 5 4 4 5 6 4 5 6 5 5 5
7 4 4 6 5 4 4 3 4 4 4 4 3 3 3 1 1 1 4 3 3 4 4 4 4 5 4 5 4 6 5 5 5 3 6 6 4 6 5 5 4 4
6 4 5 8 8 6 6 4 4 4 4 4 2 2 3 1 1 0 1 2 3 3 4 4 4 4 4 4 4 4 5 5 5 4 6 5 4 6 4 4 4 4
8 8 7 7 8 8 5 6 4 3 1 1 4 3 2 1 1 1 1 1 2 2 2 3 4 3 4 4 5 5 4 4 4 4 5 3 4 5 4 4 4 3
10 8 7 8 8 9 5 6 7 5 4 5 2 1 1 1 2 1 1 1 2 3 2 3 3 4 4 4 4 4 3 4 3 4 5 4 2 4 3 5 5 4
8 8 8 9 10 11 8 7 7 6 6 4 5 3 2 1 1 2 3 3 3 3 3 3 4 3 4 4 4 4 5 5 2 3 4 4 2 2 3 3 4 4
5 4 5 6 7 8 10 8 6 6 6 6 3 3 2 1 2 3 4 3 2 2 2 2 3 4 3 4 4 3 3 4 4 4 5 3 3 2 2 3 4 4
4 3 4 3 5 5 4 5 5 7 6 4 5 5 4 5 5 4 3 3 3 3 2 2 2 1 2 2 4 4 3 2 3 3 4 3 3 4 2 2 3 4
4 4 4 5 5 4 2 2 3 3 4 6 6 5 4 5 6 5 4 4 4 4 4 4 4 3 2 2 3 4 4 3 3 4 4 4 3 4 3 2 3 3
3 3 2 2 4 2 1 2 2 1 1 3 2 1 2 3 3 3 4 5 6 5 5 5 5 4 4 4 4 4 4 5 4 4 4 4 5 4 4 4 4 4
4 5 7 6 4 1 3 6 6 3 1 3 2 0 0 0 2 3 4 4 6 6 6 6 6 5 4 4 4 4 4 5 5 4 4 4 4 4 5 5 4 5
8 7 6 5 3 2 3 5 6 3 2 2 4 5 3 3 4 3 1 7 7 7 6 6 5 4 5 5 4 4 4 4 4 4 4 4 4 4 4 5 5 5
5 5 7 8 7 6 5 5 6 5 3 2 2 3 2 3 3 4 3 2 8 9 8 6 6 4 4 4 4 4 4 4 4 4 4 4 5 6 5 5 5 5
8 8 7 7 6 6 5 4 3 3 3 1 2 3 4 4 3 3 4 5 7 9 11 9 5 4 4 4 4 4 4 4 5 5 5 4 4 4 4 6 6 6
7 6 4 4 3 4 3 3 3 3 2 3 2 2 1 1 3 5 5 4 7 9 10 8 6 6 5 5 6 5 5 6 6 6 6 6 5 4 4 4 5 6
4 4 4 4 5 4 3 2 2 3 5 4 3 2 3 5 6 2 3 7 9 8 6 3 4 4 6 10 9 6 6 6 5 6 6 6 6 6 5 5 6 7
3 4 3 4 4 3 4 7 7 5 4 3 4 3 6 4 3 4 7 9 9 9 6 4 4 5 9 9 10 11 6 5 6 6 6 6 6 6 7 8 7 7
2 2 3 4 5 6 7 7 6 5 5 5 5 6 7 7 10 11 9 6 4 3 4 5 5 7 9 8 8 9 8 5 5 5 5 5 5 6 6 6 7 6
3 3 3 2 4 3 3 5 6 7 7 7 8 4 3 4 2 2 2 3 3 4 4 5 5 7 8 9 9 9 9 6 4 4 4 5 5 6 6 6 6 5
4 4 4 3 3 3 4 4 5 4 4 3 3 3 3 2 1 1 2 1 0 2 3 3 5 5 5 7 8 7 6 7 5 4 4 4 5 6 6 6 6 6
4 5 5 4 3 3 4 3 4 3 3 1 2 3 3 2 1 2 2 1 2 2 3 5 4 4 4 5 6 5 6 5 3 3 3 4 4 4 5 5 5 5
4 4 4 3 3 3 4 4 2 3 3 2 2 2 2 3 2 2 2 4 3 2 2 4 2 5 7 8 6 3 7 4 3 3 3 3 3 3 3 3 4 5
0 3 4 4 2 3 4 2 1 0 0 2 2 3 3 3 3 3 2 3 4 4 4 5 5 7 9 6 5 4 5 2 2 2 1 1 2 2 2 1 2 4
1 1 4 5 3 4 5 4 1 0 0 0 0 1 2 2 2 4 4 4 4 4 3 4 4 5 7 6 5 4 4 4 4 5 4 4 4 4 4 4 4 7
2 2 2 3 3 4 3 3 3 2 1 2 3 4 2 1 2 4 3 4 4 3 5 5 4 6 7 5 1 2 2 3 5 5 6 4 5 5 4 5 5 7
0 0 0 2 3 3 3 3 2 1 2 3 3 4 4 3 3 3 4 3 3 3 4 3 4 4 5 6 1 5 5 4 4 6 6 5 4 5 6 5 5 6
Wind_Direction
163 182 159 157 159 156 157 162 180 167 185 192 193 219 212 219 213 137 130 121 130 131 136 130 123 116 115 110 109 102 101 106 101 100 89 91 83 89 83 77 67 84
178 193 175 150 146 143 151 169 177 180 192 199 217 213 252 280 243 147 140 136 122 132 136 127 121 120 116 110 111 110 108 105 99 104 98 94 108 96 95 96 100 95
161 180 184 161 154 167 179 178 180 196 194 203 212 216 234 243 226 318 119 136 126 123 133 134 129 130 124 118 112 107 111 106 105 94 98 110 115 101 112 107 90 90
177 175 188 170 158 163 184 172 186 200 189 200 214 212 210 196 170 176 224 124 123 120 122 132 140 140 133 131 123 121 127 122 134 115 101 92 102 116 123 108 102 77
177 178 192 172 164 157 192 187 185 186 193 212 211 211 207 189 171 205 209 195 166 158 153 156 154 155 145 135 130 125 131 127 136 121 115 115 129 120 144 120 113 104
191 181 197 175 172 161 180 200 191 183 191 195 214 187 196 181 201 209 213 201 218 191 182 172 170 175 163 149 137 143 143 135 153 121 117 127 120 106 120 112 106 93
195 172 211 203 174 165 169 191 194 186 187 193 152 183 142 175 227 233 229 227 226 236 223 209 186 180 182 151 146 149 159 152 155 143 137 145 116 91 74 95 93 96
178 160 207 197 160 168 190 177 198 193 182 153 178 185 167 197 209 216 222 210 208 223 238 274 279 239 194 165 159 161 171 159 151 142 136 152 141 146 135 107 122 113
155 163 187 199 169 118 125 169 213 196 164 175 184 183 197 200 207 210 204 208 218 221 216 216 217 222 204 199 187 175 174 182 172 159 155 159 170 183 161 137 127 142
110 105 105 96 97 90 133 119 98 132 148 151 148 144 230 259 252 242 218 210 216 225 220 214 213 209 196 198 195 184 179 187 185 189 186 180 182 185 169 161 157 154
89 97 97 87 83 90 85 61 56 32 62 133 118 85 115 28 341 345 306 262 238 233 223 221 219 205 202 209 204 195 196 190 190 191 194 197 196 194 185 172 170 175
118 112 109 112 109 130 145 129 139 157 198 187 161 177 159 176 182 203 265 303 282 252 233 228 224 211 209 211 203 197 203 207 200 196 199 199 202 199 191 187 181 188
121 142 158 172 178 171 170 145 150 163 145 154 124 89 117 195 203 191 178 217 278 288 274 245 229 219 219 220 211 202 207 210 212 210 206 204 207 202 200 197 194 187
170 188 187 192 166 154 159 157 188 186 180 156 122 156 185 191 170 185 219 206 233 248 256 258 237 223 227 228 219 211 207 215 216 216 218 222 218 214 206 205 202 197
179 191 185 164 136 144 152 209 206 228 183 193 189 185 239 236 196 190 210 226 242 242 239 230 218 225 221 223 224 222 209 215 215 218 217 223 224 218 221 223 220 212
182 187 181 148 152 164 187 267 287 251 257 232 174 177 212 223 250 175 206 236 236 247 247 222 226 233 233 227 220 217 216 219 218 221 220 219 221 214 216 223 227 222
168 186 150 147 162 166 164 196 213 216 230 265 288 259 250 251 252 256 234 228 218 220 241 242 238 238 239 237 232 227 215 211 214 224 222 222 221 216 215 218 224 227
172 145 162 175 167 185 186 185 182 185 192 215 219 224 227 205 200 206 207 210 214 222 229 238 240 241 234 235 232 232 226 219 212 218 220 222 223 224 227 221 221 219
147 143 175 185 210 198 170 148 154 160 174 177 198 209 170 183 221 202 193 202 200 211 233 244 254 258 260 258 251 238 227 224 234 216 212 223 221 225 228 225 213 200
136 136 136 143 121 104 101 113 123 140 151 169 150 142 131 125 107 62 8 15 275 225 247 258 251 287 266 246 242 236 218 200 224 213 212 217 220 223 227 225 210 199
113 117 127 128 113 112 100 100 113 112 88 86 99 115 117 113 94 51 21 359 342 323 313 306 297 341 315 277 263 226 199 195 224 222 222 233 236 229 228 221 207 195
141 140 146 149 143 142 122 126 129 142 146 152 120 84 68 69 35 73 42 18 9 17 358 309 302 18 341 315 288 250 171 179 188 206 224 250 273 279 251 216 179 171
248 167 171 177 179 148 150 160 177 204 174 172 105 96 119 99 90 91 79 61 42 40 14 330 329 348 349 316 266 196 141 150 150 145 127 61 28 30 42 81 139 157
251 177 177 184 169 195 193 205 190 280 295 42 115 81 66 74 121 87 51 50 45 27 19 349 330 333 345 326 296 197 159 140 128 105 87 90 69 38 38 43 49 94
161 159 159 165 197 234 220 195 198 196 192 118 102 100 112 114 78 92 63 40 38 39 22 29 337 334 348 342 346 198 134 114 118 111 106 98 98 75 43 56 49 44
193 182 174 182 211 238 227 220 194 152 155 122 92 106 109 76 68 76 74 33 17 36 35 26 8 338 346 356 61 153 141 129 128 123 129 124 109 107 90 52 58 67